Find Starlink 5123

NORAD ID: 53979 Int'l Des: 2022-125 Owner: SPXS Country: US Constellation: starlink operational
LEOCIRCULAR

Live Position

Loading 3D Globe...

About Starlink 5123

Description loading...

Upcoming Passes

Passes for default location (London). Set your location on the main map for personalized predictions.

Altitude History

Loading altitude history...

Two-Line Element Set

1 53979U 22125R 26122.02138242 -.00000220 00000-0 42780-5 0 9991
2 53979 53.2185 339.6978 0001875 92.7128 267.4079 15.08840398197440
Epoch: May 2, 2026 • Age: 26 hours

Current Status

Altitude 540.0 km
Velocity 7.60 km/s
Sub-Earth Point 22.66°N, 100.87°E
Launch Date Oct 5, 2022
Age 3.5 years
Type internet

Technical Details

Classification Payload
Mass 305.00 kg
Dry Mass 290.00 kg
Total Mass 305.00 kg
Length 0.20 m
Diameter 2.80 m
Span 9.00 m
Shape Box + pan
Manufacturer SPXS
Bus Type Starlink
Phase Status In Orbit
Owner/State SPXS/US

Most Searched